User: anonymous   Login
Location: Newark
(25.0000°N, 73.5000°E)
Time: 22:18:10
(UTC+00:00)
Language:

Transit 2A - Orbit

View from above orbital plane
View from above orbital plane
View from above satellite
View from above satellite

Ground track
Ground track

The orbit data is extracted from the following two-line orbital elements,

1 00045U 60007A   21211.46867336 -.00000073  00000-0  86190-5 0  9992
2 00045  66.6952  25.6612 0253001  17.0098 343.9289 14.33728295124327
Epoch (UTC): 30 July 2021 11:14:53
Eccentricity: 0.0253001
inclination: 66.6952°
perigee height: 598 km
apogee height: 960 km
right ascension of ascending node: 25.6612°
argument of perigee: 17.0098°
revolutions per day: 14.33728295
mean anomaly at epoch: 343.9289°
orbit number at epoch: 12432

The dashed part of the orbit path shows where the satellite is in the earth's shadow,  

DLR